Probability
0 0 0 0 0 0 0 0 0 0 0 0 0 0 0 0 0 0 0 0 0 0 0 0 0 0 0 0 0 0 0 0 0 0 0 0 0 0 0 0 0 0 0
0 0 0 0 0 0 0 0 0 0 0 0 0 0 0 0 0 0 0 0 0 0 0 0 0 0 0 0 0 0 0 0 0 0 0 0 0 0 0 0 0 0 0
0 0 0 0 0 0 0 0 0 0 0 0 0 0 0 0 0 0 0 0 0 0 0 0 0 0 0 0 0 0 0 0 0 0 0 0 0 0 0 0 0 0 0
0 0 0 0 0 0 0 0 0 0 0 0 0 0 0 0 0 0 0 0 0 0 0 0 0 0 0 0 0 0 0 0 0 0 0 0 0 0 0 0 0 0 0
0 0 0 0 0 0 0 0 0 0 0 0 0 0 0 0 0 0 0 0 0 0 0 0 0 0 0 0 0 0 0 0 0 0 0 0 0 0 0 0 0 0 0
0 0 0 0 0 0 0 0 0 0 0 0 0 0 0 0 0 0 0 0 0 0 0 0 0 0 0 0 0 0 0 0 0 0 0 0 0 0 0 0 0 0 0
0 0 0 0 0 0 0 0 0 0 0 0 0 0 0 0 0 0 0 0 0 0 0 0 0 0 0 0 0 0 0 0 0 0 0 0 0 0 0 0 0 0 0
0 0 0 0 0 0 0 0 0 0 0 0 0 0 0 0 0 0 0 0 0 0 0 0 0 0 0 0 0 0 0 0 0 0 0 0 0 0 0 0 0 0 0
0 0 0 0 0 0 0 0 0 0 0 0 0 0 0 0 0 0 0 0 0 0 0 0 0 0 0 0 0 0 0 0 0 0 0 0 0 0 0 0 0 0 0
0 0 0 0 0 0 0 0 0 0 0 0 0 0 0 0 0 0 0 0 0 0 0 0 0 0 0 0 0 0 0 0 0 0 0 0 0 0 0 0 0 0 0
0 0 0 0 0 0 0 0 0 0 0 0 0 0 0 0 0 0 0 0 0 0 0 0 0 0 0 0 0 0 0 0 0 0 0 0 0 0 0 0 0 0 0
0 0 0 0 0 0 0 0 0 0 0 0 0 0 0 0 0 0 0 0 0 0 0 0 0 0 0 0 0 0 0 0 0 0 0 0 0 0 0 0 0 0 0
0 0 0 0 0 0 0 0 0 0 0 0 0 0 0 0 0 0 0 0 0 0 0 0 0 0 0 0 0 0 0 0 0 0 0 0 0 0 0 0 0 0 0
0 0 0 0 0 0 0 0 0 0 0 0 0 0 0 0 0 0 0 0 0 0 0 0 0 0 0 0 0 0 0 0 0 0 0 0 0 0 0 0 0 0 0
0 0 0 0 0 0 0 0 0 0 0 0 0 0 0 0 0 0 0 0 0 0 0 0 0 0 0 0 0 0 0 0 0 0 0 0 0 0 0 0 0 0 0
0 0 0 0 0 0 0 0 0 0 0 0 0 0 0 0 0 0 0 0 0 0 0 0 0 0 0 0 0 0 0 0 0 0 0 0 0 0 0 0 0 0 0
0 0 0 0 0 0 0 0 0 0 0 0 0 0 0 0 0 0 0 0 0 0 0 0 0 0 0 0 0 0 0 0 0 0 0 0 0 0 0 0 0 0 0
0 0 0 0 0 0 0 0 0 0 0 0 0 0 0 0 0 0 0 0 0 0 0 0 0 0 0 0 0 0 0 0 0 0 0 0 0 0 0 0 0 0 0
0 0 0 0 0 0 0 0 0 0 0 0 0 0 0 0 0 0 0 0 0 0 0 0 0 0 0 0 0 0 0 0 0 0 0 0 0 0 0 0 0 0 0
0 0 0 0 0 0 0 0 0 0 0 0 0 0 0 0 0 0 0 0 0 0 0 0 0 0 0 0 0 0 0 0 0 0 0 0 0 0 0 0 0 0 0
0 0 0 0 0 0 0 0 0 0 0 0 0 0 0 0 0 0 0 0 0 0 0 0 0 0 0 0 0 0 0 0 0 0 0 0 0 0 0 0 0 0 0
0 0 0 0 0 0 0 0 0 0 0 0 0 0 0 0 0 0 0 0 0 0 0 0 0 0 0 0 0 0 0 0 0 0 0 0 0 0 0 0 0 0 0
0 0 0 0 0 0 0 0 0 0 0 0 0 0 0 0 0 0 0 0 0 0 0 0 0 0 0 0 0 0 0 0 0 0 0 0 0 0 0 0 0 0 0
0 0 0 0 0 0 0 0 0 0 0 0 0 0 0 0 0 0 0 0 0 0 0 0 0 0 0 0 0 0 0 0 0 0 0 0 0 0 0 0 0 0 0
0 0 0 0 0 0 0 0 0 0 0 0 0 0 0 0 0 0 0 0 0 0 0 0 0 0 0 0 0 0 0 0 0 0 0 0 0 0 0 0 0 0 0
0 0 0 0 0 0 0 0 0 0 0 0 0 0 0 0 0 0 0 0 0 0 0 0 0 0 0 0 0 0 0 0 0 0 0 0 0 0 0 0 0 0 0
Height
5719 5721 5723 5726 5728 5731 5734 5737 5740 5743 5747 5750 5754 5758 5761 5765 5767 5770 5772 5775 5777 5779 5781 5782 5783 5784 5785 5785 5786 5786 5786 5785 5785 5784 5783 5783 5782 5781 5780 5779 5778 5777 5776
5714 5716 5718 5720 5723 5725 5728 5731 5734 5737 5741 5744 5748 5751 5754 5758 5761 5763 5765 5768 5770 5771 5773 5774 5775 5776 5777 5777 5778 5778 5778 5777 5777 5776 5776 5775 5775 5773 5772 5771 5770 5768 5767
5710 5712 5713 5715 5717 5720 5723 5725 5727 5731 5734 5738 5742 5745 5748 5751 5754 5756 5759 5760 5762 5764 5765 5766 5767 5768 5769 5769 5770 5770 5770 5769 5768 5767 5767 5767 5766 5765 5764 5762 5761 5759 5758
5706 5708 5709 5711 5713 5715 5717 5720 5722 5725 5728 5732 5736 5739 5742 5744 5746 5749 5751 5752 5754 5756 5757 5758 5759 5760 5760 5761 5761 5761 5761 5760 5759 5758 5758 5758 5757 5756 5755 5754 5752 5750 5748
5702 5704 5705 5706 5708 5710 5712 5714 5717 5720 5723 5726 5730 5733 5735 5737 5739 5742 5743 5745 5747 5748 5749 5750 5751 5752 5752 5752 5752 5752 5751 5750 5750 5749 5748 5747 5747 5746 5745 5744 5742 5740 5738
5698 5699 5700 5701 5703 5705 5707 5709 5711 5714 5717 5720 5723 5725 5728 5730 5733 5735 5736 5737 5738 5740 5741 5741 5742 5742 5743 5743 5742 5742 5741 5741 5740 5739 5738 5737 5736 5735 5734 5734 5732 5730 5728
5693 5694 5695 5697 5698 5700 5701 5703 5705 5708 5711 5713 5716 5718 5720 5722 5724 5726 5728 5729 5730 5731 5732 5732 5733 5733 5733 5733 5732 5732 5731 5731 5730 5729 5728 5726 5725 5724 5723 5722 5721 5719 5717
5689 5690 5691 5692 5693 5695 5696 5698 5699 5702 5704 5706 5709 5711 5713 5715 5717 5719 5720 5721 5721 5722 5722 5723 5723 5723 5723 5723 5722 5722 5720 5720 5719 5718 5716 5715 5714 5712 5711 5710 5708 5707 5706
5684 5685 5686 5687 5688 5690 5691 5692 5694 5695 5697 5699 5701 5704 5706 5708 5709 5710 5711 5711 5712 5712 5713 5713 5713 5713 5713 5712 5711 5710 5709 5708 5707 5706 5705 5703 5701 5699 5698 5696 5695 5694 5693
5680 5681 5682 5682 5683 5684 5685 5686 5688 5689 5691 5692 5694 5696 5697 5699 5700 5701 5701 5702 5702 5703 5703 5702 5702 5702 5701 5701 5700 5699 5698 5697 5695 5694 5692 5690 5689 5687 5685 5683 5681 5679 5678
5675 5675 5676 5677 5678 5678 5679 5680 5682 5683 5684 5685 5686 5687 5689 5690 5691 5691 5692 5692 5692 5692 5692 5692 5691 5690 5690 5689 5688 5687 5686 5685 5683 5681 5680 5678 5676 5674 5672 5669 5667 5664 5662
5670 5670 5671 5671 5672 5673 5674 5674 5675 5676 5677 5678 5679 5679 5680 5681 5682 5682 5682 5682 5682 5681 5681 5680 5679 5679 5678 5677 5676 5675 5673 5672 5670 5669 5667 5664 5662 5660 5657 5655 5652 5649 5646
5665 5665 5665 5665 5666 5666 5667 5667 5668 5668 5669 5670 5670 5671 5671 5672 5672 5672 5671 5671 5671 5670 5670 5669 5668 5667 5666 5665 5663 5662 5660 5659 5657 5655 5653 5650 5648 5645 5642 5639 5637 5634 5630
5659 5659 5659 5659 5659 5658 5659 5659 5659 5660 5660 5661 5661 5662 5662 5662 5662 5662 5661 5661 5660 5659 5658 5657 5656 5655 5653 5652 5650 5649 5647 5645 5643 5640 5638 5635 5633 5630 5627 5624 5621 5617 5614
5652 5652 5652 5652 5651 5651 5651 5650 5651 5651 5651 5651 5651 5651 5651 5651 5651 5651 5650 5649 5648 5647 5646 5645 5643 5642 5640 5639 5637 5635 5633 5631 5628 5626 5623 5620 5617 5614 5611 5608 5605 5601 5597
5645 5644 5644 5644 5643 5643 5642 5642 5642 5642 5641 5641 5641 5641 5641 5641 5640 5639 5639 5637 5636 5635 5634 5632 5631 5629 5627 5625 5623 5621 5619 5616 5614 5611 5608 5605 5602 5598 5595 5592 5588 5584 5580
5637 5636 5636 5635 5635 5634 5633 5633 5633 5632 5632 5631 5631 5630 5630 5629 5629 5628 5626 5625 5624 5623 5621 5619 5617 5616 5614 5611 5609 5607 5604 5602 5599 5596 5593 5590 5586 5583 5580 5576 5572 5568 5563
5629 5628 5627 5627 5626 5625 5624 5624 5623 5622 5622 5621 5620 5619 5619 5618 5616 5615 5614 5613 5611 5610 5608 5606 5604 5602 5600 5597 5595 5592 5590 5587 5584 5581 5578 5574 5571 5567 5563 5560 5556 5552 5547
5620 5619 5618 5617 5616 5615 5614 5613 5613 5612 5611 5610 5609 5608 5606 5605 5604 5603 5601 5600 5598 5596 5594 5592 5590 5588 5586 5583 5580 5578 5575 5573 5570 5566 5562 5559 5555 5551 5547 5543 5540 5536 5531
5611 5610 5608 5607 5606 5605 5603 5603 5602 5601 5599 5598 5597 5595 5594 5593 5591 5590 5588 5586 5585 5583 5581 5579 5576 5574 5572 5569 5566 5563 5561 5559 5556 5552 5548 5543 5539 5535 5530 5526 5522 5519 5515
5601 5599 5598 5597 5595 5594 5592 5591 5590 5589 5587 5586 5585 5583 5582 5580 5578 5577 5575 5573 5571 5569 5567 5565 5562 5560 5557 5554 5552 5549 5546 5543 5540 5537 5533 5528 5523 5519 5514 5510 5505 5501 5497
5590 5588 5587 5586 5584 5582 5581 5580 5579 5577 5576 5574 5573 5571 5569 5567 5565 5564 5562 5559 5557 5555 5553 5551 5548 5545 5542 5540 5537 5534 5531 5528 5525 5522 5518 5513 5508 5504 5499 5494 5489 5484 5479
5578 5577 5575 5574 5572 5570 5568 5567 5566 5564 5563 5561 5560 5558 5556 5554 5552 5550 5548 5546 5543 5541 5539 5537 5534 5532 5528 5525 5522 5519 5516 5512 5509 5506 5502 5498 5493 5488 5484 5479 5473 5468 5464
5565 5564 5562 5560 5559 5557 5555 5554 5552 5550 5549 5548 5546 5544 5542 5540 5538 5536 5534 5532 5529 5527 5525 5522 5520 5517 5514 5511 5508 5505 5501 5497 5494 5491 5487 5482 5478 5473 5469 5464 5459 5453 5448
5552 5550 5548 5547 5545 5543 5541 5539 5537 5536 5535 5533 5531 5530 5528 5526 5524 5522 5520 5517 5515 5513 5510 5508 5505 5503 5500 5497 5493 5490 5487 5483 5479 5476 5472 5468 5463 5459 5454 5449 5444 5439 5434
5537 5536 5534 5532 5530 5529 5527 5525 5523 5521 5520 5519 5517 5515 5513 5511 5509 5507 5506 5503 5501 5498 5495 5493 5490 5487 5485 5482 5478 5475 5471 5468 5464 5460 5457 5452 5448 5444 5439 5435 5430 5426 5421
Wind_Speed
29 29 30 31 30 32 33 35 36 36 36 36 34 34 36 36 34 35 34 35 35 35 34 33 34 33 33 33 34 34 33 34 34 34 34 34 35 35 35 35 35 36 36
27 28 30 31 30 30 32 34 35 38 38 38 36 35 36 36 35 34 35 35 35 35 36 36 35 35 35 35 35 35 35 35 36 36 36 36 36 36 37 37 37 38 38
25 25 27 29 30 29 31 33 34 36 38 38 36 34 35 37 37 35 35 36 36 37 37 37 36 36 36 37 37 37 37 38 38 38 38 38 37 38 38 38 38 38 39
24 24 25 26 28 30 31 31 33 35 36 36 35 34 35 36 37 36 35 37 36 36 37 37 37 38 37 38 39 39 39 40 40 39 39 39 38 38 38 39 39 40 40
23 25 25 25 26 29 30 31 33 35 36 35 35 34 34 35 36 37 35 36 37 36 37 37 38 39 39 39 38 39 40 40 40 40 40 40 41 41 41 40 41 42 43
22 24 25 25 26 27 28 29 32 34 35 34 34 35 35 36 36 37 36 36 37 38 38 38 38 39 40 39 39 40 40 41 42 42 42 42 42 42 43 43 43 44 44
22 24 26 26 26 27 28 29 30 32 34 35 35 35 36 37 37 38 38 38 37 38 39 40 41 41 42 42 42 42 42 43 43 43 43 43 44 45 45 45 45 45 46
23 24 25 26 27 27 27 28 30 31 33 34 35 35 35 36 37 38 39 40 41 41 41 43 43 43 44 45 44 45 45 44 45 45 45 45 46 46 47 47 48 48 48
23 24 25 26 27 29 29 29 30 31 32 34 34 34 35 36 37 38 39 40 42 42 42 43 44 44 45 45 46 47 47 47 47 46 46 47 48 48 48 49 50 51 51
24 24 25 26 27 28 29 29 30 31 32 33 34 35 36 37 37 39 40 41 42 42 42 43 44 44 45 45 46 47 47 48 48 48 49 49 50 50 50 51 51 52 53
24 25 26 27 27 27 29 29 29 30 32 33 35 36 37 38 39 40 41 41 42 43 44 44 44 45 46 46 47 47 48 48 49 49 50 50 51 51 52 52 53 54 55
24 26 27 27 29 29 30 30 31 32 33 34 35 36 37 39 40 41 41 42 42 43 44 44 45 46 47 47 48 49 49 50 51 51 52 52 53 53 54 55 55 56 56
24 26 27 28 30 31 32 33 34 34 34 35 37 37 38 39 40 41 42 42 43 44 45 45 46 47 48 49 49 50 51 52 52 53 53 54 54 55 55 56 56 57 58
26 27 28 30 31 32 33 34 35 35 36 37 38 39 39 40 41 42 43 43 44 45 46 46 47 48 49 49 50 51 52 52 53 54 55 55 56 56 57 57 57 58 59
27 28 29 30 32 33 34 34 36 37 38 38 39 39 40 41 42 43 44 44 45 46 46 46 47 48 50 51 51 52 53 53 54 54 55 55 56 56 57 57 58 59 60
29 30 31 32 32 33 34 35 36 37 39 39 40 41 41 42 43 44 44 45 45 46 46 47 48 49 50 51 52 53 53 53 54 54 54 55 56 57 57 58 60 61 61
31 32 32 33 34 34 35 36 37 38 39 40 41 42 43 43 44 45 45 46 47 48 48 49 49 50 50 51 52 52 53 53 53 54 55 55 56 57 58 59 60 61 62
31 33 33 34 35 36 36 37 38 39 40 41 42 43 43 44 45 46 46 47 48 49 49 49 50 50 50 51 51 52 53 53 53 53 54 55 56 57 58 58 59 60 61
33 34 35 36 37 37 38 39 39 40 41 42 42 43 44 45 46 46 47 48 48 49 49 50 50 51 51 51 52 52 52 52 53 54 55 55 56 57 58 59 59 60 60
35 35 36 37 38 39 40 40 40 41 42 43 44 44 45 46 47 47 48 48 49 49 49 50 50 51 51 51 52 52 52 52 53 54 54 55 56 57 58 59 59 59 59
37 37 38 39 39 39 40 41 41 42 44 45 45 45 46 46 47 48 48 49 49 50 50 51 51 51 51 52 52 53 53 53 53 54 54 55 56 56 57 58 59 59 59
39 40 40 41 42 41 42 42 42 44 45 45 45 46 46 47 47 48 49 50 51 51 51 51 51 51 52 52 53 53 54 54 54 54 54 54 55 56 57 58 58 58 59
42 43 43 43 43 43 44 44 44 45 45 45 46 46 46 47 47 48 48 49 50 51 51 51 51 51 52 53 53 53 53 53 54 53 54 54 55 56 56 57 57 57 56
45 46 46 46 46 46 46 46 46 47 47 47 47 48 48 48 48 48 49 49 50 50 50 50 50 51 51 52 52 52 52 53 53 53 54 54 55 56 56 56 55 55 55
46 47 47 48 48 48 48 47 47 48 48 48 48 48 48 49 49 49 49 49 49 49 50 50 51 51 51 51 52 52 52 53 54 54 54 54 54 55 55 54 54 53 53
48 48 48 48 48 48 48 48 48 48 48 48 48 48 48 48 48 48 48 48 48 49 49 50 50 50 51 51 51 52 53 53 54 54 53 53 54 53 53 52 51 50 49
Wind_Direction
241 243 242 241 239 238 240 240 239 238 238 238 238 238 238 240 243 242 246 249 252 255 258 262 264 269 271 272 273 275 276 279 280 281 282 283 283 283 284 285 284 284 284
242 244 245 243 241 240 240 241 242 241 241 242 242 241 241 242 244 246 246 250 252 254 258 262 265 267 269 270 272 274 276 278 280 280 282 283 283 283 284 284 284 284 284
244 246 245 242 243 243 241 241 241 242 243 243 244 244 245 245 245 248 248 250 252 254 258 262 265 267 268 270 273 275 277 278 279 280 281 282 282 283 283 283 283 284 284
247 246 245 243 244 244 245 244 243 242 242 243 246 246 247 248 247 249 251 251 253 257 259 262 265 267 270 271 273 274 276 278 279 280 281 281 282 282 281 282 282 283 284
248 247 249 249 247 246 246 247 246 243 243 243 246 247 250 251 251 251 253 254 256 259 262 264 266 268 269 271 273 274 276 278 278 279 279 280 281 281 281 281 282 283 284
253 250 250 250 249 248 248 249 248 247 245 246 247 250 252 252 252 254 257 259 260 263 266 267 268 270 271 273 275 276 276 277 278 278 279 281 281 281 282 281 281 282 283
257 256 253 253 253 253 250 250 250 247 247 248 249 250 252 253 255 256 259 262 264 266 267 269 270 271 272 275 276 276 277 278 278 279 279 280 281 281 282 282 281 281 282
258 256 255 256 256 255 254 253 249 249 249 250 251 253 256 257 258 261 263 265 266 268 269 270 271 272 274 275 276 276 278 279 279 280 280 280 280 281 281 281 281 281 282
264 262 257 258 257 256 256 256 253 252 253 252 252 254 256 258 261 263 265 267 267 267 269 270 271 273 274 275 276 277 278 278 278 278 279 279 280 281 281 281 282 283 283
267 266 263 262 262 260 257 256 256 254 254 256 257 257 258 259 261 263 266 267 267 269 271 272 273 274 276 278 278 278 279 279 279 279 279 280 280 282 282 283 284 284 284
271 269 267 265 265 262 260 259 258 257 257 258 259 259 259 261 262 264 266 268 269 269 271 273 274 276 278 279 280 279 279 279 279 280 281 281 281 282 283 284 285 285 286
273 272 270 268 265 263 262 262 261 259 260 261 262 261 261 262 264 266 267 269 270 271 273 274 276 278 279 280 280 280 281 281 281 282 282 282 282 283 284 285 285 286 286
276 275 271 268 266 266 265 263 262 261 262 263 264 264 264 265 267 269 270 272 273 274 276 277 278 279 280 281 281 282 282 282 282 282 282 282 283 283 284 285 286 286 286
278 275 272 269 269 268 266 264 262 263 263 264 264 265 266 267 268 270 272 274 276 277 278 279 279 280 280 281 281 282 283 283 283 282 283 283 283 284 284 285 286 286 286
278 274 271 269 269 268 268 266 265 265 265 266 266 267 268 269 270 272 274 275 276 278 279 279 280 280 281 281 282 283 284 284 284 284 283 283 284 284 285 285 286 287 287
277 274 272 270 270 269 269 268 267 267 267 267 268 268 269 271 272 274 275 277 278 279 279 280 280 281 282 283 283 284 284 284 284 284 284 284 285 286 286 287 287 287 288
278 276 274 273 272 271 270 270 269 269 269 269 269 270 271 272 274 275 276 277 278 279 280 281 282 282 283 283 284 284 284 284 285 285 285 285 286 286 287 287 287 288 289
280 278 276 274 273 272 271 271 271 271 271 271 271 272 273 274 275 276 277 278 279 281 282 282 283 283 283 284 284 284 285 285 286 286 286 286 287 287 287 287 288 289 289
280 279 278 275 274 273 272 272 272 272 273 273 273 273 274 275 276 276 277 279 280 280 281 282 282 283 284 284 285 285 286 286 287 287 288 288 288 288 288 289 289 290 290
280 279 279 278 277 276 275 274 274 273 273 274 274 274 275 276 277 277 278 279 279 281 282 282 283 283 284 285 285 286 286 287 288 288 289 289 289 290 290 291 291 292 292
280 280 279 278 277 277 276 275 275 275 275 276 276 276 277 277 278 278 278 279 280 281 282 283 283 284 285 285 286 287 287 288 288 288 289 290 290 291 291 292 293 293 293
280 280 279 279 278 277 277 276 276 276 276 277 277 278 278 278 279 279 280 280 281 282 283 284 284 285 285 286 286 287 288 289 289 290 290 290 291 292 292 293 294 294 294
281 281 280 280 279 279 278 278 277 277 277 277 277 278 278 279 279 280 281 281 282 282 283 284 284 285 286 286 287 288 289 289 290 290 291 292 292 293 293 293 294 294 294
281 280 280 280 280 280 280 279 279 279 278 277 278 279 279 279 280 280 281 282 282 282 283 284 285 286 286 287 288 288 288 289 290 290 291 292 292 293 294 294 294 294 295
282 281 280 280 280 281 281 280 279 279 278 278 279 279 280 280 281 282 283 283 283 284 285 285 286 286 287 287 288 288 289 289 290 291 291 292 292 293 293 294 294 294 294
283 282 282 281 281 281 281 280 280 279 279 279 280 280 281 281 282 283 284 284 285 286 287 287 287 287 287 288 288 289 290 291 292 292 292 293 293 293 293 293 293 293 294